• en Suisse
  • Liste des pays
  • À 7 jours
  • Température de l'eau
  • Carte satellitaire
  • Carte météo
  • Widgets météo
  • user-avatar
    Se connecter

    Météo par heure à Boma

    Ce jour, 21 Septembre, Vendredi

    Heure Température Précipitation Vent Pression Humidité
    00:00 +21°C° 0.9 mm 0 m/s 699 mmHg 94%
    01:00 +23°C° 0.9 mm 1 m/s 699 mmHg 96%
    02:00 +22°C° 0.8 mm 1 m/s 699 mmHg 96%
    03:00 +22°C° 0.8 mm 1 m/s 699 mmHg 97%
    04:00 +22°C° 0.8 mm 1 m/s 699 mmHg 98%
    05:00 +22°C° 0.2 mm 1 m/s 699 mmHg 97%
    06:00 +21°C° 0.2 mm 0 m/s 699 mmHg 96%
    07:00 +21°C° 0.2 mm 0 m/s 700 mmHg 96%
    08:00 +22°C° 0.8 mm 0 m/s 700 mmHg 92%
    09:00 +24°C° 0.8 mm 0 m/s 700 mmHg 88%
    10:00 +25°C° 0.8 mm 0 m/s 701 mmHg 84%
    11:00 +27°C° 0.4 mm 0 m/s 700 mmHg 73%
    12:00 +29°C° 0.4 mm 0 m/s 700 mmHg 61%
    13:00 +32°C° 0.4 mm 0 m/s 700 mmHg 49%
    14:00 +33°C° 0.1 mm 1 m/s 699 mmHg 51%
    15:00 +32°C° 0.1 mm 1 m/s 699 mmHg 53%
    16:00 +32°C° 0.1 mm 1 m/s 698 mmHg 55%
    17:00 +29°C° 1.4 mm 1 m/s 698 mmHg 68%
    18:00 +27°C° 1.4 mm 1 m/s 698 mmHg 80%
    19:00 +24°C° 1.4 mm 1 m/s 698 mmHg 93%
    20:00 +24°C° 0.5 mm 1 m/s 699 mmHg 94%
    21:00 +23°C° 0.5 mm 1 m/s 699 mmHg 95%
    22:00 +21°C° 0.5 mm 0 m/s 699 mmHg 96%
    23:00 +21°C° 0.2 mm 0 m/s 699 mmHg 96%

    Demain, 22 Septembre, Samedi

    Heure Température Précipitation Vent Pression Humidité
    00:00 +23°C° 0.2 mm 1 m/s 699 mmHg 97%
    01:00 +22°C° 0.2 mm 1 m/s 699 mmHg 98%
    02:00 +22°C° 0.1 mm 1 m/s 699 mmHg 98%
    03:00 +22°C° 0.1 mm 1 m/s 699 mmHg 98%
    04:00 +22°C° 0.1 mm 1 m/s 698 mmHg 99%
    05:00 +22°C° 0.2 mm 1 m/s 699 mmHg 98%
    06:00 +22°C° 0.2 mm 1 m/s 699 mmHg 98%
    07:00 +23°C° 0.2 mm 1 m/s 700 mmHg 97%
    08:00 +24°C° 0.1 mm 1 m/s 700 mmHg 90%
    09:00 +26°C° 0.1 mm 1 m/s 701 mmHg 83%
    10:00 +28°C° 0.1 mm 1 m/s 702 mmHg 75%
    11:00 +28°C° 1.6 mm 1 m/s 701 mmHg 77%
    12:00 +28°C° 1.6 mm 1 m/s 700 mmHg 79%
    13:00 +27°C° 1.6 mm 0 m/s 700 mmHg 80%
    14:00 +27°C° 0.5 mm 0 m/s 699 mmHg 78%
    15:00 +27°C° 0.5 mm 0 m/s 699 mmHg 75%
    16:00 +27°C° 0.5 mm 0 m/s 698 mmHg 72%
    17:00 +25°C° 0 mm 0 m/s 698 mmHg 79%
    18:00 +24°C° 0 mm 0 m/s 699 mmHg 85%
    19:00 +22°C° 0 mm 0 m/s 699 mmHg 92%
    20:00 +21°C° 0.6 mm 0 m/s 699 mmHg 94%
    21:00 +21°C° 0.6 mm 0 m/s 700 mmHg 96%
    22:00 +20°C° 0.6 mm 0 m/s 700 mmHg 97%
    23:00 +20°C° 0 mm 0 m/s 700 mmHg 98%

    Après-demain, 23 Septembre, Dimanche

    Heure Température Précipitation Vent Pression Humidité
    00:00 +20°C° 0 mm 0 m/s 699 mmHg 98%
    01:00 +22°C° 0 mm 1 m/s 699 mmHg 98%
    02:00 +21°C° 0 mm 1 m/s 699 mmHg 99%
    03:00 +21°C° 0 mm 1 m/s 699 mmHg 99%
    04:00 +21°C° 0 mm 1 m/s 698 mmHg 99%
    05:00 +21°C° 0 mm 1 m/s 699 mmHg 98%
    06:00 +20°C° 0 mm 0 m/s 700 mmHg 98%
    07:00 +20°C° 0 mm 0 m/s 700 mmHg 97%
    08:00 +24°C° 0 mm 1 m/s 701 mmHg 87%
    09:00 +26°C° 0 mm 1 m/s 701 mmHg 78%
    10:00 +28°C° 0 mm 1 m/s 702 mmHg 68%
    11:00 +30°C° 0 mm 1 m/s 701 mmHg 61%
    12:00 +32°C° 0 mm 1 m/s 701 mmHg 53%
    13:00 +34°C° 0 mm 1 m/s 700 mmHg 46%
    14:00 +34°C° 0.1 mm 1 m/s 699 mmHg 48%
    15:00 +33°C° 0.1 mm 1 m/s 699 mmHg 50%
    16:00 +32°C° 0.1 mm 1 m/s 698 mmHg 52%
    17:00 +30°C° 0.5 mm 1 m/s 699 mmHg 61%
    18:00 +28°C° 0.5 mm 1 m/s 699 mmHg 69%
    19:00 +26°C° 0.5 mm 1 m/s 699 mmHg 78%
    20:00 +25°C° 1.9 mm 1 m/s 700 mmHg 84%
    21:00 +24°C° 1.9 mm 1 m/s 700 mmHg 90%
    22:00 +23°C° 1.9 mm 1 m/s 700 mmHg 96%
    23:00 +22°C° 0.6 mm 1 m/s 700 mmHg 97%

    24 Septembre, Lundi

    Heure Température Précipitation Vent Pression Humidité
    00:00 +22°C° 0.6 mm 1 m/s 700 mmHg 97%
    01:00 +20°C° 0.6 mm 0 m/s 699 mmHg 98%
    02:00 +20°C° 0.1 mm 0 m/s 699 mmHg 98%
    03:00 +20°C° 0.1 mm 0 m/s 699 mmHg 99%
    04:00 +20°C° 0.1 mm 0 m/s 699 mmHg 99%
    05:00 +20°C° 0 mm 0 m/s 700 mmHg 98%
    06:00 +20°C° 0 mm 0 m/s 700 mmHg 98%
    07:00 +21°C° 0 mm 0 m/s 701 mmHg 98%
    08:00 +22°C° 0 mm 0 m/s 701 mmHg 90%
    09:00 +26°C° 0 mm 1 m/s 701 mmHg 83%
    10:00 +28°C° 0 mm 1 m/s 702 mmHg 75%
    11:00 +29°C° 0.6 mm 1 m/s 701 mmHg 73%
    12:00 +30°C° 0.6 mm 1 m/s 700 mmHg 70%
    13:00 +29°C° 0.6 mm 0 m/s 699 mmHg 67%
    14:00 +30°C° 1.7 mm 1 m/s 699 mmHg 75%
    15:00 +29°C° 1.7 mm 1 m/s 699 mmHg 82%
    16:00 +28°C° 1.7 mm 1 m/s 698 mmHg 90%
    17:00 +26°C° 0.7 mm 1 m/s 699 mmHg 92%
    18:00 +25°C° 0.7 mm 1 m/s 699 mmHg 94%
    19:00 +22°C° 0.7 mm 0 m/s 699 mmHg 96%
    20:00 +21°C° 0 mm 0 m/s 700 mmHg 97%
    21:00 +21°C° 0 mm 0 m/s 700 mmHg 97%
    22:00 +21°C° 0 mm 0 m/s 700 mmHg 97%
    23:00 +21°C° 0.1 mm 0 m/s 700 mmHg 98%

    25 Septembre, Mardi

    Heure Température Précipitation Vent Pression Humidité
    00:00 +23°C° 0.1 mm 1 m/s 700 mmHg 98%
    01:00 +22°C° 0.1 mm 1 m/s 699 mmHg 98%
    02:00 +22°C° 0 mm 1 m/s 699 mmHg 98%
    03:00 +22°C° 0 mm 1 m/s 699 mmHg 98%
    04:00 +22°C° 0 mm 1 m/s 699 mmHg 98%
    05:00 +20°C° 0 mm 0 m/s 700 mmHg 98%
    06:00 +20°C° 0 mm 0 m/s 700 mmHg 97%
    07:00 +21°C° 0 mm 0 m/s 701 mmHg 97%
    08:00 +22°C° 0.1 mm 0 m/s 701 mmHg 89%
    09:00 +26°C° 0.1 mm 1 m/s 701 mmHg 81%
    10:00 +28°C° 0.1 mm 1 m/s 702 mmHg 73%
    11:00 +29°C° 0.2 mm 1 m/s 701 mmHg 67%
    12:00 +30°C° 0.2 mm 1 m/s 700 mmHg 62%
    13:00 +31°C° 0.2 mm 1 m/s 699 mmHg 57%
    14:00 +31°C° 0.1 mm 1 m/s 699 mmHg 58%
    15:00 +31°C° 0.1 mm 1 m/s 698 mmHg 59%
    16:00 +30°C° 0.1 mm 1 m/s 698 mmHg 60%
    17:00 +28°C° 0.4 mm 1 m/s 698 mmHg 69%
    18:00 +26°C° 0.4 mm 1 m/s 698 mmHg 78%
    19:00 +22°C° 0.4 mm 0 m/s 699 mmHg 88%
    20:00 +22°C° 0.2 mm 0 m/s 699 mmHg 89%
    21:00 +21°C° 0.2 mm 0 m/s 699 mmHg 91%
    22:00 +21°C° 0.2 mm 0 m/s 700 mmHg 93%
    23:00 +20°C° 0.5 mm 0 m/s 699 mmHg 94%

    26 Septembre, Mercredi

    Heure Température Précipitation Vent Pression Humidité
    00:00 +20°C° 0.5 mm 0 m/s 699 mmHg 95%
    01:00 +20°C° 0.5 mm 0 m/s 699 mmHg 97%
    02:00 +20°C° 0.2 mm 0 m/s 699 mmHg 97%
    03:00 +20°C° 0.2 mm 0 m/s 699 mmHg 98%
    04:00 +22°C° 0.2 mm 1 m/s 699 mmHg 98%
    05:00 +22°C° 0 mm 1 m/s 699 mmHg 98%
    06:00 +20°C° 0 mm 0 m/s 700 mmHg 98%
    07:00 +20°C° 0 mm 0 m/s 700 mmHg 97%
    08:00 +24°C° 0 mm 1 m/s 700 mmHg 89%
    09:00 +26°C° 0 mm 1 m/s 701 mmHg 81%
    10:00 +28°C° 0 mm 1 m/s 701 mmHg 73%
    11:00 +29°C° 0.5 mm 1 m/s 700 mmHg 72%
    12:00 +29°C° 0.5 mm 1 m/s 699 mmHg 70%
    13:00 +30°C° 0.5 mm 1 m/s 699 mmHg 69%
    14:00 +30°C° 0.2 mm 1 m/s 698 mmHg 66%
    15:00 +30°C° 0.2 mm 1 m/s 698 mmHg 64%
    16:00 +31°C° 0.2 mm 1 m/s 698 mmHg 62%
    17:00 +28°C° 1.4 mm 1 m/s 698 mmHg 73%
    18:00 +26°C° 1.4 mm 1 m/s 698 mmHg 85%
    19:00 +23°C° 1.4 mm 1 m/s 698 mmHg 96%
    20:00 +23°C° 0.3 mm 1 m/s 699 mmHg 96%
    21:00 +23°C° 0.3 mm 1 m/s 699 mmHg 97%
    22:00 +23°C° 0.3 mm 1 m/s 700 mmHg 97%
    23:00 +22°C° 0 mm 1 m/s 699 mmHg 97%
    Voir plus